Regional Weather Roundup
Issued by NWS

Home | Current Version | Previous Version | Graphics & Text | Print | Product List | Glossary On
Versions: 1 2 3 4 5 6 7 8 9 10 11 12 13 14 15 16 17 18 19 20 21 22 23 24 25 26 27 28 29 30 31 32 33 34 35 36 37 38 39 40 41 42 43 44 45 46 47 48 49 50
451
ASUS43 KBIS 251910
RWRND

NORTH DAKOTA REGIONAL WEATHER ROUNDUP
NATIONAL WEATHER SERVICE BISMARCK ND
100 PM CST SAT FEB 25 2017

NOTE: "FAIR" INDICATES FEW OR NO CLOUDS BELOW 12,000 FEET WITH NO
SIGNIFICANT WEATHER AND/OR OBSTRUCTIONS TO VISIBILITY.


NDZ001>003-009>011-017-252000-
NORTHWEST NORTH DAKOTA

CITY           SKY/WX    TMP DP  RH WIND       PRES   REMARKS
WILLISTON      LGT SNOW  23  19  85 SW8       29.79F FOG     WCI  14
MINOT          CLOUDY    23  15  71 NW12      29.81F WCI  12
$$

NDZ018>021-031>035-040>046-252000-
SOUTHWEST NORTH DAKOTA

CITY           SKY/WX    TMP DP  RH WIND       PRES   REMARKS
BISMARCK       CLOUDY    27  21  78 NW10      29.86S WCI  17
DICKINSON      CLOUDY    25  18  74 W14       29.78F WCI  13
GARRISON         N/A     23  18  81 W6        29.82F WCI  16
HETTINGER ARPT PTSUNNY   29  18  63 W17       29.82F WCI  17
$$

NDZ004>008-012>016-024-026-027-054-252000-
NORTHEAST NORTH DAKOTA

CITY           SKY/WX    TMP DP  RH WIND       PRES   REMARKS
GRAND FORKS    PTSUNNY   31  18  58 NW15      29.80F
GRND FRKS AFB  CLOUDY    29  20  67 NW10      29.80F WCI  20
DEVILS LAKE    PTSUNNY   23  18  81 W10       29.80F WCI  12
$$

NDZ022-023-025-028>030-036>039-047>053-252000-
SOUTHEAST NORTH DAKOTA

CITY           SKY/WX    TMP DP  RH WIND       PRES   REMARKS
FARGO          CLOUDY    31  22  69 W13       29.83F
JAMESTOWN      CLOUDY    26  21  81 NW14      29.81F WCI  14
$$





USA.gov is the U.S. government's official web portal to all federal, state and local government web resources and services.